Biggin Hill, United Kingdom

3:37 AM BST on October 17, 2017 (GMT +0100)
Biggin Hill

Weather History for EGKB - November, 2012

Change the Weather History Date:

Thursday, November 29, 2012

  Actual Average Record
Temperature  
Mean Temperature 34 °F -  
Max Temperature 41 °F 45 °F 59 °F (2014)
Min Temperature 28 °F 40 °F 28 °F (2010)
Degree Days  
Heating Degree Days 30    
Moisture  
Dew Point 33 °F    
Average Humidity 87    
Maximum Humidity 93    
Minimum Humidity 81    
Precipitation  
Precipitation 0.00 in - - ()
Sea Level Pressure  
Sea Level Pressure 29.88 in    
Wind  
Wind Speed 7 mph ()    
Max Wind Speed 10 mph    
Max Gust Speed -    
Visibility 6.2 miles    
Events      
Averages and records for this station are not official NWS values.
T = Trace of Precipitation, MM = Missing Value Source: Averaged Metar Reports

Daily Weather History Graph

Daily Weather History Graph

Search for Another Location

Airport or City:

Trip Planner

Search our weather history database for the weather conditions in past years. The results will help you decide how hot, cold, wet, or windy it might be!

Date:

Astronomy

Nov. 29, 2012 Rise Set
Actual Time 7:40 AM GMT 3:56 PM GMT
Civil Twilight 7:01 AM GMT 4:35 PM GMT
Nautical Twilight 6:19 AM GMT 5:17 PM GMT
Astronomical Twilight 5:39 AM GMT 5:57 PM GMT
Moon 4:46 PM GMT (11/29) 8:16 AM GMT (11/29)
Length of Visible Light 9h 33m
Length of Day
8h 16m
Full, 99% of the Moon is Illuminated
Nov 29
Full
Dec 6
Last Quarter
Dec 13
New
Dec 20
First Quarter
Dec 28
Full

Hourly Weather History & Observations

Time (GMT) Temp. Windchill Dew Point Humidity Pressure Visibility Wind Dir Wind Speed Gust Speed Precip Events Conditions
7:20 AM 28.4 °F 20.4 °F 26.6 °F 93% 29.89 in 6.2 mi NW 8.1 mph - N/A   Mostly Cloudy
7:50 AM 35.6 °F 28.6 °F 32.0 °F 87% 29.89 in 6.2 mi NW 9.2 mph - N/A   Mostly Cloudy
8:20 AM 35.6 °F 29.2 °F 32.0 °F 87% 29.89 in 6.2 mi NW 8.1 mph - N/A   Mostly Cloudy
8:50 AM 35.6 °F 29.2 °F 32.0 °F 87% 29.89 in 6.2 mi NW 8.1 mph - N/A   Mostly Cloudy
9:20 AM 35.6 °F 29.2 °F 32.0 °F 87% 29.92 in 6.2 mi NW 8.1 mph - N/A   Mostly Cloudy
9:50 AM 35.6 °F 29.2 °F 33.8 °F 93% 29.92 in 6.2 mi NW 8.1 mph - N/A   Mostly Cloudy
10:20 AM 35.6 °F 29.9 °F 32.0 °F 87% 29.92 in 6.2 mi NW 6.9 mph - N/A   Mostly Cloudy
10:50 AM 35.6 °F 29.9 °F 33.8 °F 93% 29.92 in 6.2 mi WNW 6.9 mph - N/A   Mostly Cloudy
11:20 AM 37.4 °F 30.3 °F 33.8 °F 87% 29.89 in 6.2 mi NW 10.4 mph - N/A   Mostly Cloudy
11:50 AM 37.4 °F 30.3 °F 33.8 °F 87% 29.89 in 6.2 mi NNW 10.4 mph - N/A   Scattered Clouds
12:20 PM 39.2 °F 32.5 °F 33.8 °F 81% 29.89 in 6.2 mi NNW 10.4 mph - N/A   Mostly Cloudy
12:50 PM 39.2 °F 33.0 °F 33.8 °F 81% 29.89 in 6.2 mi NW 9.2 mph - N/A   Scattered Clouds
1:20 PM 39.2 °F 33.0 °F 33.8 °F 81% 29.86 in 6.2 mi NW 9.2 mph - N/A   Scattered Clouds
1:50 PM 39.2 °F 33.0 °F 33.8 °F 81% 29.86 in 6.2 mi NW 9.2 mph - N/A   Scattered Clouds
2:20 PM 41.0 °F 35.2 °F 35.6 °F 81% 29.86 in 6.2 mi NNW 9.2 mph - N/A   Scattered Clouds
2:50 PM 41.0 °F 35.8 °F 35.6 °F 81% 29.86 in 6.2 mi NNW 8.1 mph - N/A   Partly Cloudy
3:20 PM 39.2 °F 33.6 °F 33.8 °F 81% 29.86 in 6.2 mi North 8.1 mph - N/A   Partly Cloudy
3:50 PM 39.2 °F 33.6 °F 33.8 °F 81% 29.86 in 6.2 mi North 8.1 mph - N/A   Partly Cloudy
4:20 PM 37.4 °F 31.4 °F 33.8 °F 87% 29.86 in 6.2 mi North 8.1 mph - N/A   Partly Cloudy
4:50 PM 37.4 °F 33.8 °F 33.8 °F 87% 29.86 in 6.2 mi NW 4.6 mph - N/A   Partly Cloudy
5:20 PM 35.6 °F 31.7 °F 32.0 °F 87% 29.86 in - NNW 4.6 mph - N/A   Clear
5:50 PM 37.4 °F 33.8 °F 33.8 °F 87% 29.86 in - NW 4.6 mph - N/A   Clear
6:20 PM 37.4 °F 33.8 °F 33.8 °F 87% 29.86 in - WNW 4.6 mph - N/A   Clear
6:50 PM 35.6 °F 32.8 °F 33.8 °F 93% 29.83 in - WNW 3.5 mph - N/A   Clear
7:20 PM 35.6 °F 32.8 °F 32.0 °F 87% 29.86 in - NW 3.5 mph - N/A   Clear
7:50 PM 33.8 °F 30.8 °F 32.0 °F 93% 29.86 in - NW 3.5 mph - N/A   Clear
8:20 PM 33.8 °F 30.8 °F 32.0 °F 93% 29.86 in - NW 3.5 mph - N/A   Clear